| time (UTC) | temp C | wind direction | speed KPH | gust KPH | rain 1hr cm | rain 24hr cm | rain mn cm | humidity % | barometer mb |
| 20260503021518 | 7 | 0.0 | 0.0 | 0.00 | 0.00 | 0.00 | 84 | 1018.2 | |
| 20260503020515 | 7 | 0.0 | 0.0 | 0.00 | 0.00 | 0.00 | 83 | 1018.2 | |
| 20260503015515 | 7 | 0.0 | 0.0 | 0.00 | 0.00 | 0.00 | 83 | 1018.1 | |
| 20260503014515 | 7 | 0.0 | 0.0 | 0.00 | 0.00 | 0.00 | 83 | 1018.1 | |
| 20260503013515 | 7 | 0.0 | 0.0 | 0.00 | 0.00 | 0.00 | 83 | 1018.1 | |
| 20260503012514 | 7 | 0.0 | 0.0 | 0.00 | 0.00 | 0.00 | 82 | 1018.2 | |
| 20260503011515 | 8 | 0.0 | 0.0 | 0.00 | 0.00 | 0.00 | 82 | 1018.3 | |
| 20260503010516 | 8 | 0.0 | 0.0 | 0.00 | 0.00 | 0.00 | 82 | 1018.3 | |
| 20260503005514 | 8 | 0.0 | 0.0 | 0.00 | 0.00 | 0.00 | 81 | 1018.4 | |
| 20260503004515 | 8 | 0.0 | 0.0 | 0.00 | 0.00 | 0.00 | 81 | 1018.5 | |
| 20260503003515 | 8 | 0.0 | 0.0 | 0.00 | 0.00 | 0.00 | 81 | 1018.5 | |
| 20260503002515 | 8 | 0.0 | 0.0 | 0.00 | 0.00 | 0.00 | 80 | 1018.5 | |
| 20260503001517 | 8 | 0.0 | 0.0 | 0.00 | 0.00 | 0.00 | 80 | 1018.6 | |
| 20260503000517 | 8 | 0.0 | 0.0 | 0.00 | 0.00 | 0.00 | 80 | 1018.7 | |
| 20260502235518 | 8 | 0.0 | 0.0 | 0.00 | 0.00 | 0.00 | 79 | 1018.9 | |
| 20260502234517 | 8 | 0.0 | 0.0 | 0.00 | 0.00 | 0.00 | 79 | 1019.0 | |
| 20260502233517 | 8 | 0.0 | 0.0 | 0.00 | 0.00 | 0.00 | 79 | 1019.0 | |
| 20260502232517 | 8 | 0.0 | 0.0 | 0.00 | 0.00 | 0.00 | 78 | 1019.1 | |
| 20260502231517 | 9 | 0.0 | 0.0 | 0.00 | 0.00 | 0.00 | 78 | 1019.2 | |
| 20260502230517 | 9 | 0.0 | 0.0 | 0.00 | 0.00 | 0.00 | 77 | 1019.2 | |
| 20260502225517 | 9 | 0.0 | 0.0 | 0.00 | 0.00 | 0.00 | 77 | 1019.3 | |
| 20260502224517 | 10 | 0.0 | 0.0 | 0.00 | 0.00 | 0.00 | 76 | 1019.4 | |
| 20260502223558 | 10 | 0.0 | 0.0 | 0.00 | 0.00 | 0.00 | 76 | 1019.5 | |
| 20260502222517 | 10 | 0.0 | 0.0 | 0.00 | 0.00 | 0.00 | 75 | 1019.5 | |
| 20260502221516 | 10 | 0.0 | 0.0 | 0.00 | 0.00 | 0.00 | 75 | 1019.6 | |
| 20260502220517 | 10 | 0.0 | 0.0 | 0.00 | 0.00 | 0.00 | 74 | 1019.6 | |
| 20260502215537 | 10 | 0.0 | 0.0 | 0.00 | 0.00 | 0.00 | 73 | 1019.6 | |
| 20260502214516 | 10 | 0.0 | 0.0 | 0.00 | 0.00 | 0.00 | 73 | 1019.7 | |
| 20260502213537 | 10 | 0.0 | 0.0 | 0.00 | 0.00 | 0.00 | 73 | 1019.8 | |
| 20260502212517 | 10 | 0.0 | 0.0 | 0.00 | 0.00 | 0.00 | 72 | 1019.8 | |
| 20260502211516 | 10 | 0.0 | 0.0 | 0.00 | 0.00 | 0.00 | 72 | 1019.8 | |
| 20260502210516 | 10 | 0.0 | 0.0 | 0.00 | 0.00 | 0.00 | 72 | 1020.0 | |
| 20260502205517 | 10 | 0.0 | 0.0 | 0.00 | 0.00 | 0.00 | 72 | 1020.2 | |
| 20260502204517 | 11 | 0.0 | 0.0 | 0.00 | 0.00 | 0.00 | 72 | 1020.2 | |
| 20260502203517 | 11 | 0.0 | 0.0 | 0.00 | 0.00 | 0.00 | 71 | 1020.3 | |
| 20260502202517 | 11 | 0.0 | 0.0 | 0.00 | 0.00 | 0.00 | 71 | 1020.4 | |
| 20260502201517 | 11 | 0.0 | 0.0 | 0.00 | 0.00 | 0.00 | 69 | 1020.4 | |
| 20260502200517 | 11 | 0.0 | 0.0 | 0.00 | 0.00 | 0.00 | 68 | 1020.4 | |
| 20260502195537 | 12 | 0.0 | 0.0 | 0.00 | 0.00 | 0.00 | 69 | 1020.5 | |
| 20260502194516 | 12 | 0.0 | 0.0 | 0.00 | 0.00 | 0.00 | 68 | 1020.5 | |
| 20260502193516 | 12 | 0.0 | 0.0 | 0.00 | 0.00 | 0.00 | 67 | 1020.5 | |
| 20260502192516 | 12 | 0.0 | 0.0 | 0.00 | 0.00 | 0.00 | 65 | 1020.6 | |
| 20260502191516 | 13 | 0.0 | 0.0 | 0.00 | 0.00 | 0.00 | 64 | 1020.4 | |
| 20260502190537 | 13 | 0.0 | 0.0 | 0.00 | 0.00 | 0.00 | 63 | 1020.4 | |
| 20260502185516 | 14 | 0.0 | 0.0 | 0.00 | 0.00 | 0.00 | 62 | 1020.4 | |
| 20260502184516 | 14 | 0.0 | 0.0 | 0.00 | 0.00 | 0.00 | 59 | 1020.4 | |
| 20260502183516 | 15 | 0.0 | 0.0 | 0.00 | 0.00 | 0.00 | 58 | 1020.3 | |
| 20260502182536 | 15 | 0.0 | 0.0 | 0.00 | 0.00 | 0.00 | 57 | 1020.2 | |
| 20260502181516 | 16 | 0.0 | 0.0 | 0.00 | 0.00 | 0.00 | 56 | 1020.1 | |
| 20260502180517 | 16 | 0.0 | 0.0 | 0.00 | 0.00 | 0.00 | 54 | 1020.1 | |
| 20260502170516 | 21 | 0.0 | 0.0 | 0.00 | 0.00 | 0.00 | 41 | 1020.0 | |
| 20260502163516 | 22 | 0.0 | 0.0 | 0.00 | 0.00 | 0.00 | 36 | 1020.2 | |
| 20260502162536 | 22 | 0.0 | 0.0 | 0.00 | 0.00 | 0.00 | 36 | 1020.3 | |
| 20260502161516 | 22 | 0.0 | 0.0 | 0.00 | 0.00 | 0.00 | 34 | 1020.4 | |
| 20260502160516 | 23 | 0.0 | 0.0 | 0.00 | 0.00 | 0.00 | 35 | 1020.5 | |
| 20260502151516 | 24 | 0.0 | 0.0 | 0.00 | 0.00 | 0.00 | 31 | 1021.0 | |
| 20260502150536 | 25 | 0.0 | 0.0 | 0.00 | 0.00 | 0.00 | 30 | 1021.1 | |
| 20260502130516 | 25 | 0.0 | 1.6 | 0.00 | 0.00 | 0.00 | 30 | 1022.3 | |
| 20260502123515 | 24 | 288 | 0.0 | 3.2 | 0.00 | 0.00 | 0.00 | 30 | 1022.7 |
| 20260502122516 | 25 | 0.0 | 4.8 | 0.00 | 0.00 | 0.00 | 29 | 1022.8 | |
| 20260502121515 | 25 | 0.0 | 8.0 | 0.00 | 0.00 | 0.00 | 31 | 1023.0 | |
| 20260502120516 | 24 | 0.0 | 0.0 | 0.00 | 0.00 | 0.00 | 31 | 1023.1 | |
| 20260502115515 | 24 | 105 | 0.0 | 3.2 | 0.00 | 0.00 | 0.00 | 30 | 1023.2 |
| 20260502113515 | 24 | 246 | 1.6 | 4.8 | 0.00 | 0.00 | 0.00 | 30 | 1023.5 |
| 20260502112515 | 24 | 215 | 1.6 | 9.7 | 0.00 | 0.00 | 0.00 | 32 | 1023.8 |
| 20260502111515 | 23 | 0.0 | 0.0 | 0.00 | 0.00 | 0.00 | 33 | 1023.9 | |
| 20260502110536 | 23 | 17 | 1.6 | 4.8 | 0.00 | 0.00 | 0.00 | 32 | 1024.0 |
| 20260502105515 | 24 | 67 | 3.2 | 6.4 | 0.00 | 0.00 | 0.00 | 32 | 1024.1 |
| 20260502104515 | 23 | 203 | 3.2 | 8.0 | 0.00 | 0.00 | 0.00 | 36 | 1024.1 |
| 20260502103515 | 23 | 278 | 1.6 | 8.0 | 0.00 | 0.00 | 0.00 | 35 | 1024.2 |
| 20260502102515 | 22 | 255 | 1.6 | 4.8 | 0.00 | 0.00 | 0.00 | 34 | 1024.3 |
| 20260502101515 | 23 | 331 | 1.6 | 8.0 | 0.00 | 0.00 | 0.00 | 34 | 1024.5 |
| 20260502100536 | 23 | 92 | 0.0 | 6.4 | 0.00 | 0.00 | 0.00 | 35 | 1024.5 |
| 20260502091515 | 22 | 0.0 | 0.0 | 0.00 | 0.00 | 0.00 | 37 | 1025.1 | |
| 20260502090515 | 22 | 359 | 1.6 | 6.4 | 0.00 | 0.00 | 0.00 | 40 | 1025.2 |
| 20260502071517 | 18 | 0.0 | 0.0 | 0.00 | 0.00 | 0.00 | 52 | 1026.0 | |
| 20260502070517 | 18 | 216 | 1.6 | 4.8 | 0.00 | 0.00 | 0.00 | 54 | 1026.0 |
| 20260502065517 | 18 | 215 | 0.0 | 4.8 | 0.00 | 0.00 | 0.00 | 54 | 1026.0 |
| 20260502064518 | 17 | 0.0 | 0.0 | 0.00 | 0.00 | 0.00 | 59 | 1025.9 | |
| 20260502063517 | 16 | 0.0 | 0.0 | 0.00 | 0.00 | 0.00 | 62 | 1025.9 | |
| 20260502062517 | 15 | 0.0 | 0.0 | 0.00 | 0.00 | 0.00 | 65 | 1026.0 | |
| 20260502060517 | 13 | 0.0 | 0.0 | 0.00 | 0.00 | 0.00 | 69 | 1026.1 | |
| 20260502055517 | 13 | 0.0 | 0.0 | 0.00 | 0.00 | 0.00 | 71 | 1026.2 | |
| 20260502054517 | 12 | 0.0 | 0.0 | 0.00 | 0.00 | 0.00 | 74 | 1026.1 | |
| 20260502053517 | 10 | 0.0 | 0.0 | 0.00 | 0.00 | 0.00 | 78 | 1026.2 | |
| 20260502052517 | 9 | 0.0 | 0.0 | 0.00 | 0.00 | 0.00 | 81 | 1026.2 | |
| 20260502051517 | 8 | 0.0 | 0.0 | 0.00 | 0.00 | 0.00 | 86 | 1026.3 | |
| 20260502050517 | 6 | 0.0 | 0.0 | 0.00 | 0.00 | 0.00 | 90 | 1026.2 | |
| 20260502045537 | 6 | 0.0 | 0.0 | 0.00 | 0.00 | 0.00 | 92 | 1026.0 | |
| 20260502044517 | 5 | 0.0 | 0.0 | 0.00 | 0.00 | 0.00 | 91 | 1025.9 | |
| 20260502043517 | 5 | 0.0 | 0.0 | 0.00 | 0.00 | 0.00 | 91 | 1025.9 | |
| 20260502042517 | 5 | 0.0 | 0.0 | 0.00 | 0.00 | 0.00 | 92 | 1025.9 | |
| 20260502041517 | 5 | 0.0 | 0.0 | 0.00 | 0.00 | 0.00 | 91 | 1026.0 | |
| 20260502040516 | 5 | 0.0 | 0.0 | 0.00 | 0.00 | 0.00 | 91 | 1026.0 | |
| 20260502035516 | 5 | 0.0 | 0.0 | 0.00 | 0.00 | 0.00 | 91 | 1026.0 | |
| 20260502034517 | 5 | 0.0 | 0.0 | 0.00 | 0.00 | 0.00 | 91 | 1026.0 | |
| 20260502033516 | 5 | 0.0 | 0.0 | 0.00 | 0.00 | 0.00 | 91 | 1025.9 | |
| 20260502032516 | 5 | 0.0 | 0.0 | 0.00 | 0.00 | 0.00 | 90 | 1025.8 | |
| 20260502031517 | 5 | 0.0 | 0.0 | 0.00 | 0.00 | 0.00 | 90 | 1025.8 | |
| 20260502030557 | 5 | 0.0 | 0.0 | 0.00 | 0.00 | 0.00 | 90 | 1025.7 | |
| 20260502025516 | 5 | 0.0 | 0.0 | 0.00 | 0.00 | 0.00 | 90 | 1025.7 | |
| 20260502024536 | 5 | 0.0 | 0.0 | 0.00 | 0.00 | 0.00 | 89 | 1025.8 | |
| 20260502023516 | 5 | 0.0 | 0.0 | 0.00 | 0.00 | 0.00 | 89 | 1025.8 | |
| 20260502022516 | 5 | 0.0 | 0.0 | 0.00 | 0.00 | 0.00 | 89 | 1025.8 |